CW4541 Weather Reports


Display with metric or nautical units.
time (UTC)temp
F
wind
direction
speed
MPH
gust
MPH
rain 1hr
in
rain 24hr
in
rain mn
in
humidity
%
barometer
mb
20260505120605 35 0 1.0 5.0 0.00 0.01 0.00 38 1017.7
20260505120111 35 0 0.0 1.0 0.00 0.01 0.00 39 1017.6
20260505110605 37 0 1.0 3.0 0.00 0.01 0.00 34 1017.4
20260505100606 39 0 0.0 5.0 0.00 0.01 0.00 32 1017.2
20260505100111 39 0 1.0 5.0 0.00 0.01 0.00 33 1017.2
20260505090605 38 0 0.0 3.0 0.00 0.02 0.00 42 1016.9
20260505080605 40 0 0.0 0.0 0.00 0.02 0.00 38 1016.7
20260505080111 41 0 0.0 0.0 0.00 0.02 0.00 38 1016.7
20260505070606 44 0 0.0 0.0 0.00 0.06 0.00 33 1016.7
20260505070110 44 0 0.0 0.0 0.00 0.06 0.00 33 1016.8
20260505060606 44 0 0.0 2.0 0.00 0.06 0.00 34 1016.8
20260505050113 43 0 0.0 0.0 0.00 0.06 0.06 32 1016.6
20260505040607 45 0 0.0 0.0 0.00 0.06 0.06 29 1016.5
20260505030607 48 0 0.0 0.0 0.00 0.06 0.06 25 1016.1
20260505030113 48 0 0.0 0.0 0.00 0.06 0.06 25 1016.0
20260505020607 53 0 0.0 1.0 0.00 0.06 0.06 18 1015.2
20260505020113 53 0 0.0 2.0 0.00 0.06 0.06 17 1015.2
20260505010607 56 0 1.0 5.0 0.00 0.06 0.06 17 1015.3
20260505010113 56 0 1.0 5.0 0.00 0.06 0.06 17 1015.2
20260505000607 59 0 2.0 8.0 0.00 0.06 0.06 17 1015.5
20260505000112 59 0 2.0 8.0 0.00 0.06 0.06 16 1015.6
20260504230607 60 0 1.0 9.0 0.00 0.06 0.06 19 1015.2
20260504230112 60 0 2.0 9.0 0.00 0.06 0.06 18 1015.3
20260504220607 61 0 1.0 9.0 0.00 0.06 0.06 23 1015.2
20260504220111 61 0 3.0 10.0 0.00 0.06 0.06 20 1015.3
20260504210606 61 0 3.0 10.0 0.00 0.06 0.06 25 1015.7
20260504210112 61 0 4.0 9.0 0.00 0.06 0.06 25 1015.8
20260504200112 60 0 3.0 12.0 0.00 0.06 0.06 31 1016.3
20260504190607 53 0 0.0 5.0 0.01 0.06 0.06 46 1016.8
20260504190112 52 0 0.0 5.0 0.01 0.06 0.06 51 1016.9
20260504180112 60 0 1.0 5.0 0.00 0.05 0.05 35 1016.9
20260504170607 58 0 1.0 6.0 0.00 0.05 0.05 40 1017.0
20260504170112 57 0 1.0 6.0 0.00 0.05 0.05 43 1017.0
20260504160127 51 0 2.0 6.0 0.00 0.05 0.05 62 1017.4
20260504150607 48 0 0.0 2.0 0.00 0.05 0.05 72 1017.5
20260504150112 48 0 0.0 1.0 0.00 0.05 0.05 72 1017.5
20260504140606 45 0 0.0 1.0 0.00 0.05 0.05 83 1017.8
20260504140112 45 0 0.0 1.0 0.00 0.05 0.05 84 1017.9
20260504130607 41 0 0.0 1.0 0.00 0.05 0.05 83 1017.6
20260504130112 41 0 0.0 1.0 0.00 0.05 0.05 83 1017.6